Terminal Aerodrome Forecast
Issued by NWS Rapid City, SD

Home | Current Version | Previous Version | Graphics & Text | Print | Product List | Glossary On
Versions: 1 2 3 4 5 6 7 8 9 10 11 12 13 14
704
FTUS43 KUNR 271120
TAFRAP
TAF
KRAP 271120Z 2712/2812 34005KT P6SM BKN060
     FM271700 03010KT P6SM BKN060
     FM280300 VRB05KT P6SM SCT250=

USA.gov is the U.S. government's official web portal to all federal, state and local government web resources and services.